This demonstration page uses our WeatherBlox Daily Observations layout. Learn more.

Left ArrowRight Arrow

Hourly Observations for August 21, 2020

Temp ( °F °C ) Dew Point ( °F °C ) Humidity (%) Winds ( mph kmh ) Pressure ( in mb ) Visibility ( mi km ) Precip ( " mm )
12:53 am 00:53 Clear 59 15 56 13.3 90 90 N N/A 29.96 1015 10 16.0934 N/A
1:53 am 01:53 Clear 59 15 57 13.9 93 93 N N/A 29.96 1015 10 16.0934 N/A
2:53 am 02:53 Clear 59 15 57 13.9 93 93 N N/A 29.96 1014 10 16.0934 N/A
3:53 am 03:53 Clear 58 14.4 57 13.9 97 97 N N/A 29.96 1014 10 16.0934 N/A
4:53 am 04:53 Clear 58 14.4 57 13.9 97 97 N N/A 29.97 1015 10 16.0934 N/A
5:53 am 05:53 Clear 57 13.9 56 13.3 96 96 N N/A 29.97 1015 10 16.0934 N/A
6:53 am 06:53 Clear 56 13.3 55 12.8 97 97 N N/A 29.98 1015 10 16.0934 N/A
7:53 am 07:53 Sunny 58 14.4 57 13.9 97 97 N N/A 29.99 1016 10 16.0934 N/A
8:53 am 08:53 Sunny 64 17.8 61 16.1 90 90 N N/A 30 1016 10 16.0934 N/A
9:53 am 09:53 Sunny 71 21.7 62 16.7 73 73 N N/A 30 1016 10 16.0934 N/A
10:53 am 10:53 Sunny 75 23.9 58 14.4 55 55 ENE 7 11 29.99 1016 10 16.0934 N/A
11:53 am 11:53 Sunny 80 26.7 59 15 49 49 E 10 17 29.98 1015 10 16.0934 N/A
12:53 pm 12:53 Sunny 80 26.7 60 15.6 51 51 VRB 3 6 29.97 1015 10 16.0934 N/A
1:53 pm 13:53 Sunny 81 27.2 63 17.2 54 54 N N/A 29.96 1015 10 16.0934 N/A
2:53 pm 14:53 Sunny 83 28.3 62 16.7 49 49 N N/A 29.94 1014 10 16.0934 N/A
3:53 pm 15:53 Sunny 84 28.9 63 17.2 49 49 VRB 3 6 29.93 1014 10 16.0934 N/A
4:53 pm 16:53 Partly Cloudy 83 28.3 66 18.9 57 57 N N/A 29.92 1013 10 16.0934 N/A
5:53 pm 17:53 Mostly Cloudy 82 27.8 66 18.9 58 58 E 3 6 29.91 1013 10 16.0934 N/A
6:53 pm 18:53 Sunny 80 26.7 68 20 67 67 E 3 6 29.91 1013 10 16.0934 N/A
7:53 pm 19:53 Sunny 76 24.4 69 20.6 79 79 N N/A 29.92 1013 10 16.0934 N/A
8:53 pm 20:53 Mostly Cloudy 71 21.7 67 19.4 87 87 N N/A 29.93 1014 10 16.0934 N/A
9:53 pm 21:53 Clear 70 21.1 65 18.3 84 84 N N/A 29.94 1014 10 16.0934 N/A
10:53 pm 22:53 Clear 68 20 65 18.3 90 90 N N/A 29.94 1014 10 16.0934 N/A
11:53 pm 23:53 Clear 67 19.4 65 18.3 93 93 N N/A 29.94 1014 10 16.0934 N/A

Powered by AerisWeather